SCP
-0 -1 -0 -0 0 -0 -0 -0 -0 -0 -0 -0 -0 -0 -0 -0 -0 -0 -0 -0 -0 -0 -0 -0 -0 -0 -0 -0 -0 -0 0 -0 -0 0 0 0 0 0 0 0 0 0 0
-0 -0 -0 -0 -0 -0 -0 -0 -0 -0 -0 -0 -0 -0 -0 -0 -0 -0 -0 -0 -0 -0 -0 -0 -0 -0 -0 -0 -0 0 0 0 0 0 0 0 0 0 0 0 0 0 0
-0 -0 -0 -0 -0 -0 -0 -0 -0 -0 -0 -0 -0 -0 -0 -0 -0 -0 -0 -0 -0 -0 -0 -0 -0 0 -0 -0 0 0 0 0 0 0 0 0 0 0 0 0 0 0 0
-0 -0 -0 -0 -0 -0 -0 -0 -0 -0 -0 -0 -0 -0 -0 -0 -0 -0 -0 -0 -0 -0 -0 -0 0 -0 -0 0 0 0 0 0 0 0 0 0 0 0 0 0 0 0 0
-0 -0 -0 -0 -0 -0 -0 -0 -0 -0 -0 -0 -0 -0 -0 -0 -0 -0 -0 -0 -0 -0 -0 -0 -0 0 0 0 0 0 0 0 0 0 0 0 0 0 0 0 0 0 0
-0 -0 -1 -0 -0 -0 -0 -0 -0 -0 -0 -0 -0 -0 -0 -0 -0 -0 -0 -0 -0 -0 -0 0 0 0 0 0 0 0 0 0 0 0 0 0 0 0 0 0 0 0 0
-0 -0 -0 -0 -0 -0 -0 -0 -0 -0 -0 -0 -0 -0 -0 0 0 -0 -0 -0 -0 0 0 0 0 0 0 0 0 0 0 0 -0 0 0 0 0 1 0 0 0 0 0
-0 -0 -0 -0 -0 -0 -0 -0 -0 -0 -0 -0 -0 -0 -0 -0 -0 -0 -0 0 0 0 0 0 0 0 0 0 0 0 0 0 0 0 0 0 0 0 0 0 0 0 0
-0 -0 -0 -0 -0 -0 -0 -0 -0 -0 -0 -0 -0 -0 -0 -0 0 0 0 0 0 0 0 0 0 0 0 0 0 0 0 0 0 0 0 0 0 0 0 0 0 0 0
-0 -0 -0 -0 -0 -0 -0 -0 -0 -0 -0 -0 -0 -0 0 0 0 0 0 0 0 0 0 0 0 0 0 0 0 0 0 0 0 0 0 0 0 0 0 0 0 0 0
-0 -0 -0 -0 -0 -0 -0 -0 -0 -0 -0 -0 -0 -0 0 0 -0 -0 -0 0 0 0 0 0 0 0 0 0 0 0 0 0 0 0 0 0 0 0 0 0 0 0 0
-0 -0 -0 -0 -0 -0 0 -0 -0 -0 -0 -0 -0 -0 -0 0 -0 0 0 0 0 0 0 0 0 0 0 0 0 0 0 0 0 0 0 0 0 0 0 0 0 0 0
-0 -0 -0 -0 0 0 0 0 -0 -0 -0 -0 -0 -0 -0 -0 0 0 0 0 0 0 0 0 0 0 0 0 0 0 0 0 0 0 0 0 0 0 0 0 0 0 0
-0 -0 -0 -0 -0 -0 0 0 0 0 -0 -0 -0 -0 -0 0 0 0 0 0 0 0 0 0 0 0 0 0 0 0 0 0 0 0 0 0 0 0 0 0 0 0 0
-0 -0 -0 -0 -0 -0 -0 0 0 0 -0 0 -0 -0 -0 0 0 0 0 0 0 0 0 0 0 1 1 1 0 0 0 0 0 0 0 0 0 0 0 0 0 0 0
-0 -0 -0 -0 -0 -0 -0 -0 -0 -0 0 0 0 -0 -0 0 0 0 0 0 0 0 1 1 3 2 2 1 0 0 0 0 0 0 0 0 0 0 0 0 0 0 0
-0 -0 -0 -0 -0 -0 -0 -0 -0 -0 -0 -0 0 0 0 0 0 0 0 0 1 2 2 2 1 0 0 0 0 0 0 0 0 0 0 0 0 0 0 0 0 0 0
-0 -1 -0 -0 -0 -0 -0 -0 -0 -0 0 0 0 0 0 0 1 1 1 1 3 2 0 0 0 0 0 0 0 -0 0 0 0 0 0 0 0 0 0 0 0 0 0
-0 -0 -0 -0 -0 -0 -0 0 0 0 0 0 0 0 0 0 1 2 2 3 3 1 0 0 0 0 0 0 -0 -0 -0 0 0 0 0 0 0 0 0 0 0 0 0
0 0 0 -0 -0 0 0 0 0 0 0 0 0 0 0 1 1 2 4 6 4 2 0 0 0 0 0 -0 -0 -0 -0 0 0 0 0 0 0 0 0 0 0 0 0
-0 0 0 -0 0 0 0 0 1 0 0 1 1 1 1 2 2 6 6 6 6 3 0 0 0 0 -0 -0 0 -0 0 0 0 0 0 0 0 0 0 0 0 0 0
0 -0 0 -0 0 1 1 1 2 -0 -0 0 1 1 3 2 4 4 6 4 3 1 0 0 0 0 0 0 0 0 0 0 0 0 0 0 0 0 0 0 0 0 0
-0 -0 -0 0 1 1 1 2 2 3 3 1 1 1 2 3 3 4 3 4 2 0 0 0 0 0 -0 0 0 0 0 0 0 0 0 0 0 0 0 0 0 0 0
0 -0 -0 0 0 1 1 0 1 3 4 3 3 4 3 3 2 4 3 2 1 1 0 0 0 0 0 0 0 0 0 0 0 0 0 0 0 0 0 0 0 0 0
0 0 -0 0 0 0 1 1 1 1 2 3 3 2 2 4 3 3 2 3 1 2 0 0 0 0 0 0 0 0 0 0 0 0 0 0 0 0 0 0 0 0 0
0 0 1 1 0 0 0 1 1 2 1 -0 -1 1 2 5 1 2 1 1 0 0 0 0 0 0 0 0 0 0 0 0 0 0 0 0 0 0 0 0 0 0 0
Wind_Speed_500mb
36 45 45 44 44 43 41 40 40 38 35 33 31 27 25 26 26 29 31 30 29 28 28 29 26 23 20 20 20 20 18 14 10 8 5 4 8 12 15 16 14 9 14
43 48 48 46 46 44 41 41 39 37 34 32 29 26 24 24 23 25 26 27 27 27 27 27 26 23 21 20 21 19 15 10 7 3 3 9 17 17 20 21 19 16 24
47 49 51 48 46 44 42 40 38 35 32 31 29 26 25 23 22 23 24 24 25 26 27 26 24 22 20 20 19 18 14 10 8 5 5 6 11 21 20 21 23 25 28
47 50 52 50 47 42 39 37 35 33 31 29 27 26 25 23 23 21 22 23 25 26 26 25 23 22 21 21 19 17 14 12 10 8 8 10 11 17 15 18 21 23 26
46 47 51 50 46 42 38 35 32 31 30 29 28 27 25 23 21 21 21 23 25 27 27 26 25 23 20 19 18 17 17 15 14 11 10 12 8 19 21 25 28 24 24
44 44 48 49 44 40 38 34 32 30 28 29 29 28 26 23 21 19 21 24 27 27 28 28 25 22 20 20 20 19 20 19 17 12 17 15 9 19 26 31 28 29 28
43 42 47 48 43 38 35 34 33 30 29 29 29 28 26 23 20 18 21 25 28 30 31 30 27 25 24 23 23 24 25 24 19 19 18 14 17 26 32 34 29 29 29
40 41 45 48 44 38 34 34 33 31 30 28 29 29 27 24 21 19 21 25 29 31 32 32 30 28 27 26 27 28 29 27 20 20 17 19 29 35 36 32 25 25 27
36 40 40 49 46 40 36 35 35 33 30 28 29 28 28 26 24 21 20 26 29 32 33 34 32 31 30 30 30 31 31 27 19 23 22 24 34 40 36 27 24 26 31
35 39 37 42 45 44 40 38 38 36 34 31 30 30 29 29 26 23 21 25 29 32 34 35 34 32 32 32 32 33 31 28 21 25 27 29 39 41 35 27 29 34 37
34 39 37 39 39 38 34 37 41 41 38 35 33 32 31 28 24 26 24 26 29 33 34 34 33 32 32 31 33 32 29 19 23 26 25 38 43 42 37 36 37 39 40
37 39 38 39 39 37 36 33 42 39 40 39 36 33 33 26 25 25 29 28 29 32 34 34 33 32 32 22 28 30 23 23 25 27 27 42 43 42 39 40 40 43 42
36 38 41 41 41 39 37 34 31 34 33 34 39 35 29 27 28 28 25 25 30 28 30 31 33 30 25 27 28 27 27 27 27 27 30 44 43 42 43 44 43 41 47
37 39 39 41 42 42 37 36 34 34 34 33 32 40 37 32 30 27 25 25 26 27 25 28 26 28 30 30 31 31 30 29 28 30 31 47 44 44 47 47 44 39 42
36 37 39 41 43 45 52 37 37 36 36 34 34 34 36 33 30 28 29 29 30 28 29 27 27 29 29 31 31 32 30 31 31 31 30 46 47 48 48 47 43 37 37
37 40 40 40 44 46 46 48 38 38 38 38 36 36 39 38 35 33 33 34 32 32 30 29 29 34 31 26 30 34 31 31 31 32 32 33 51 47 45 42 41 38 37
41 42 44 45 44 46 47 47 47 40 38 40 39 42 46 45 45 43 37 38 36 41 41 42 29 27 36 38 45 42 34 34 41 35 37 32 31 40 40 35 35 34 30
44 48 50 46 48 52 49 48 47 47 48 42 41 41 47 51 50 49 48 42 50 47 41 40 21 34 73 73 70 60 52 38 33 40 37 33 29 27 31 34 29 33 34
49 50 51 53 55 53 52 55 53 48 50 46 43 44 47 49 47 53 50 40 55 53 48 61 62 45 54 67 63 55 51 46 35 33 36 35 29 26 19 31 25 29 35
50 53 53 52 56 55 45 51 54 53 55 55 56 54 53 52 48 47 52 62 60 70 70 73 58 41 36 48 61 66 45 48 36 38 34 27 25 20 18 20 21 21 30
51 52 52 54 51 54 55 58 59 47 54 57 58 58 48 50 51 63 66 73 67 64 60 56 40 27 29 37 58 53 44 44 43 31 26 26 27 23 23 22 20 25 26
43 45 51 58 57 64 67 63 49 67 50 48 33 52 60 53 64 56 63 63 60 54 43 20 20 31 50 39 49 33 18 27 31 28 26 26 28 25 28 29 27 27 28
26 29 39 46 57 61 60 53 54 63 66 47 31 31 33 39 47 65 62 69 54 54 53 38 48 35 38 47 51 30 15 19 21 30 29 28 29 28 27 31 34 31 31
7 10 17 24 34 46 52 46 33 37 37 32 24 21 35 38 38 48 57 56 59 51 59 26 48 52 42 45 41 38 40 30 23 30 25 27 29 30 31 32 33 36 35
33 20 23 7 13 21 30 32 35 29 22 19 19 25 31 35 33 35 43 45 52 44 59 47 61 52 42 47 26 22 25 24 28 32 40 33 31 32 34 34 38 40 40
37 34 25 11 8 10 15 17 21 28 23 17 20 25 40 53 42 62 61 48 60 76 69 54 42 36 32 29 26 28 26 26 27 31 36 39 41 40 42 37 36 42 42
Wind_Direction_500mb
176 175 169 168 169 170 168 168 170 170 169 169 169 165 156 153 148 152 159 158 163 163 164 166 167 167 164 162 158 156 156 151 139 122 96 42 360 346 338 327 315 338 274
170 177 170 170 171 175 173 174 174 176 177 179 177 173 164 161 158 160 164 166 167 171 173 174 174 174 169 168 166 167 165 164 165 166 359 346 332 322 317 310 300 255 278
169 173 171 172 173 176 177 176 176 179 181 182 181 179 172 170 169 170 170 171 172 175 179 180 178 176 173 175 176 179 181 190 203 235 324 346 300 300 306 302 293 281 279
170 172 174 174 176 175 176 177 177 179 181 184 184 182 180 178 176 176 178 180 182 184 186 184 183 181 184 187 190 194 203 217 241 276 340 310 316 300 325 321 311 295 283
170 171 179 176 177 177 180 182 184 186 186 187 189 189 187 185 183 187 191 193 194 194 191 188 187 189 192 198 210 222 233 245 265 294 283 287 309 287 330 327 311 293 280
169 172 182 180 180 182 185 189 193 194 193 193 194 193 192 192 191 198 203 203 203 198 194 192 195 198 203 212 224 241 254 263 276 289 290 288 318 291 317 320 300 282 281
172 177 185 184 184 187 191 196 199 200 201 201 199 199 199 200 201 210 213 209 203 199 198 199 204 209 217 226 236 247 258 267 276 272 271 282 282 306 315 317 296 280 280
177 179 185 187 190 193 197 203 206 207 208 207 206 207 205 208 211 217 215 210 204 202 206 209 215 221 229 238 246 254 262 270 283 274 272 281 278 303 313 315 288 277 279
182 180 188 192 194 197 202 208 212 214 215 215 214 214 214 215 217 220 218 215 211 212 216 219 225 232 241 249 256 263 270 277 272 271 279 288 283 302 310 304 278 274 277
187 187 193 191 199 202 207 209 214 218 219 220 220 220 220 222 223 225 226 222 223 223 224 227 233 240 249 257 263 267 271 274 275 267 282 283 280 307 308 289 278 280 282
189 194 196 198 203 203 208 218 216 219 222 224 225 224 225 228 234 236 237 236 229 230 232 234 239 247 256 266 270 270 273 272 268 277 283 273 294 306 301 292 286 285 284
196 197 200 201 203 205 207 214 221 222 225 227 229 230 229 227 225 224 233 241 238 238 239 241 247 254 262 260 281 283 267 262 273 274 285 276 299 302 296 291 286 288 284
194 196 200 205 207 207 213 215 216 217 223 227 228 227 227 227 234 237 236 248 246 248 244 255 252 259 254 254 257 261 263 267 275 279 281 281 299 300 296 289 281 276 273
199 200 202 206 208 211 215 220 220 219 223 224 230 235 227 232 231 229 236 238 239 233 236 239 246 258 254 260 263 258 260 265 270 276 281 282 295 299 297 290 280 271 263
203 204 206 207 213 217 219 218 222 225 230 230 231 235 231 233 235 238 238 236 235 234 234 240 254 254 258 266 266 267 264 263 273 279 279 283 295 302 300 292 281 267 256
210 211 211 212 218 222 226 224 225 229 232 234 234 236 243 237 236 236 239 239 237 229 226 237 234 256 257 254 266 266 265 269 273 276 281 283 296 303 300 290 279 269 254
215 212 215 217 220 231 232 235 236 234 239 239 241 240 246 248 243 241 239 238 233 232 238 240 252 265 275 275 282 261 268 266 271 278 282 285 290 303 305 290 277 266 245
213 222 222 218 220 233 235 240 243 246 246 243 243 242 248 248 247 250 246 240 233 236 238 262 279 290 293 278 273 273 276 272 274 276 282 281 285 289 294 292 273 257 253
224 217 224 227 225 228 236 238 243 242 247 245 245 245 244 242 239 246 246 240 241 244 252 256 264 280 289 278 269 278 275 265 271 277 271 278 276 283 267 277 272 267 255
232 232 226 229 233 232 232 241 241 250 252 254 252 246 242 240 233 231 240 244 254 248 262 257 255 252 270 287 266 269 261 270 273 275 270 267 264 262 268 256 272 281 268
231 234 234 234 231 236 237 247 252 258 252 249 253 254 254 252 243 245 249 257 251 248 254 246 266 264 289 281 265 264 272 271 272 260 258 263 258 264 260 263 271 262 276
241 236 241 247 246 250 248 249 246 276 280 265 294 271 266 261 259 245 254 257 256 249 207 188 342 261 236 272 263 259 272 254 260 254 254 256 259 262 268 265 263 265 271
245 248 243 252 258 256 253 251 246 232 255 279 304 297 295 299 291 283 279 262 254 248 220 223 313 230 239 274 258 242 268 254 289 275 256 261 258 263 265 265 263 266 271
341 272 262 254 246 255 259 254 260 245 251 267 289 291 297 314 313 291 281 269 269 263 220 257 278 246 260 256 254 254 252 263 280 286 263 262 258 269 271 267 265 269 271
41 69 39 2 225 229 244 257 256 272 275 267 282 297 312 305 298 289 282 285 261 272 232 266 251 252 249 237 236 246 255 264 272 266 276 275 266 270 274 274 280 274 273
38 38 52 52 100 137 202 222 236 253 271 267 302 291 300 298 287 291 303 275 264 268 239 245 253 243 222 226 233 244 250 256 260 265 271 272 271 273 273 270 276 279 276
Wind_Speed_850mb
36 45 45 44 44 43 41 40 40 38 35 33 31 27 25 26 26 29 31 30 29 28 28 29 26 23 20 20 20 20 18 14 10 8 5 4 8 12 15 16 14 9 14
43 48 48 46 46 44 41 41 39 37 34 32 29 26 24 24 23 25 26 27 27 27 27 27 26 23 21 20 21 19 15 10 7 3 3 9 17 17 20 21 19 16 24
47 49 51 48 46 44 42 40 38 35 32 31 29 26 25 23 22 23 24 24 25 26 27 26 24 22 20 20 19 18 14 10 8 5 5 6 11 21 20 21 23 25 28
47 50 52 50 47 42 39 37 35 33 31 29 27 26 25 23 23 21 22 23 25 26 26 25 23 22 21 21 19 17 14 12 10 8 8 10 11 17 15 18 21 23 26
46 47 51 50 46 42 38 35 32 31 30 29 28 27 25 23 21 21 21 23 25 27 27 26 25 23 20 19 18 17 17 15 14 11 10 12 8 19 21 25 28 24 24
44 44 48 49 44 40 38 34 32 30 28 29 29 28 26 23 21 19 21 24 27 27 28 28 25 22 20 20 20 19 20 19 17 12 17 15 9 19 26 31 28 29 28
43 42 47 48 43 38 35 34 33 30 29 29 29 28 26 23 20 18 21 25 28 30 31 30 27 25 24 23 23 24 25 24 19 19 18 14 17 26 32 34 29 29 29
40 41 45 48 44 38 34 34 33 31 30 28 29 29 27 24 21 19 21 25 29 31 32 32 30 28 27 26 27 28 29 27 20 20 17 19 29 35 36 32 25 25 27
36 40 40 49 46 40 36 35 35 33 30 28 29 28 28 26 24 21 20 26 29 32 33 34 32 31 30 30 30 31 31 27 19 23 22 24 34 40 36 27 24 26 31
35 39 37 42 45 44 40 38 38 36 34 31 30 30 29 29 26 23 21 25 29 32 34 35 34 32 32 32 32 33 31 28 21 25 27 29 39 41 35 27 29 34 37
34 39 37 39 39 38 34 37 41 41 38 35 33 32 31 28 24 26 24 26 29 33 34 34 33 32 32 31 33 32 29 19 23 26 25 38 43 42 37 36 37 39 40
37 39 38 39 39 37 36 33 42 39 40 39 36 33 33 26 25 25 29 28 29 32 34 34 33 32 32 22 28 30 23 23 25 27 27 42 43 42 39 40 40 43 42
36 38 41 41 41 39 37 34 31 34 33 34 39 35 29 27 28 28 25 25 30 28 30 31 33 30 25 27 28 27 27 27 27 27 30 44 43 42 43 44 43 41 47
37 39 39 41 42 42 37 36 34 34 34 33 32 40 37 32 30 27 25 25 26 27 25 28 26 28 30 30 31 31 30 29 28 30 31 47 44 44 47 47 44 39 42
36 37 39 41 43 45 52 37 37 36 36 34 34 34 36 33 30 28 29 29 30 28 29 27 27 29 29 31 31 32 30 31 31 31 30 46 47 48 48 47 43 37 37
37 40 40 40 44 46 46 48 38 38 38 38 36 36 39 38 35 33 33 34 32 32 30 29 29 34 31 26 30 34 31 31 31 32 32 33 51 47 45 42 41 38 37
41 42 44 45 44 46 47 47 47 40 38 40 39 42 46 45 45 43 37 38 36 41 41 42 29 27 36 38 45 42 34 34 41 35 37 32 31 40 40 35 35 34 30
44 48 50 46 48 52 49 48 47 47 48 42 41 41 47 51 50 49 48 42 50 47 41 40 21 34 73 73 70 60 52 38 33 40 37 33 29 27 31 34 29 33 34
49 50 51 53 55 53 52 55 53 48 50 46 43 44 47 49 47 53 50 40 55 53 48 61 62 45 54 67 63 55 51 46 35 33 36 35 29 26 19 31 25 29 35
50 53 53 52 56 55 45 51 54 53 55 55 56 54 53 52 48 47 52 62 60 70 70 73 58 41 36 48 61 66 45 48 36 38 34 27 25 20 18 20 21 21 30
51 52 52 54 51 54 55 58 59 47 54 57 58 58 48 50 51 63 66 73 67 64 60 56 40 27 29 37 58 53 44 44 43 31 26 26 27 23 23 22 20 25 26
43 45 51 58 57 64 67 63 49 67 50 48 33 52 60 53 64 56 63 63 60 54 43 20 20 31 50 39 49 33 18 27 31 28 26 26 28 25 28 29 27 27 28
26 29 39 46 57 61 60 53 54 63 66 47 31 31 33 39 47 65 62 69 54 54 53 38 48 35 38 47 51 30 15 19 21 30 29 28 29 28 27 31 34 31 31
7 10 17 24 34 46 52 46 33 37 37 32 24 21 35 38 38 48 57 56 59 51 59 26 48 52 42 45 41 38 40 30 23 30 25 27 29 30 31 32 33 36 35
33 20 23 7 13 21 30 32 35 29 22 19 19 25 31 35 33 35 43 45 52 44 59 47 61 52 42 47 26 22 25 24 28 32 40 33 31 32 34 34 38 40 40
37 34 25 11 8 10 15 17 21 28 23 17 20 25 40 53 42 62 61 48 60 76 69 54 42 36 32 29 26 28 26 26 27 31 36 39 41 40 42 37 36 42 42
Wind_Direction_850mb
176 175 169 168 169 170 168 168 170 170 169 169 169 165 156 153 148 152 159 158 163 163 164 166 167 167 164 162 158 156 156 151 139 122 96 42 360 346 338 327 315 338 274
170 177 170 170 171 175 173 174 174 176 177 179 177 173 164 161 158 160 164 166 167 171 173 174 174 174 169 168 166 167 165 164 165 166 359 346 332 322 317 310 300 255 278
169 173 171 172 173 176 177 176 176 179 181 182 181 179 172 170 169 170 170 171 172 175 179 180 178 176 173 175 176 179 181 190 203 235 324 346 300 300 306 302 293 281 279
170 172 174 174 176 175 176 177 177 179 181 184 184 182 180 178 176 176 178 180 182 184 186 184 183 181 184 187 190 194 203 217 241 276 340 310 316 300 325 321 311 295 283
170 171 179 176 177 177 180 182 184 186 186 187 189 189 187 185 183 187 191 193 194 194 191 188 187 189 192 198 210 222 233 245 265 294 283 287 309 287 330 327 311 293 280
169 172 182 180 180 182 185 189 193 194 193 193 194 193 192 192 191 198 203 203 203 198 194 192 195 198 203 212 224 241 254 263 276 289 290 288 318 291 317 320 300 282 281
172 177 185 184 184 187 191 196 199 200 201 201 199 199 199 200 201 210 213 209 203 199 198 199 204 209 217 226 236 247 258 267 276 272 271 282 282 306 315 317 296 280 280
177 179 185 187 190 193 197 203 206 207 208 207 206 207 205 208 211 217 215 210 204 202 206 209 215 221 229 238 246 254 262 270 283 274 272 281 278 303 313 315 288 277 279
182 180 188 192 194 197 202 208 212 214 215 215 214 214 214 215 217 220 218 215 211 212 216 219 225 232 241 249 256 263 270 277 272 271 279 288 283 302 310 304 278 274 277
187 187 193 191 199 202 207 209 214 218 219 220 220 220 220 222 223 225 226 222 223 223 224 227 233 240 249 257 263 267 271 274 275 267 282 283 280 307 308 289 278 280 282
189 194 196 198 203 203 208 218 216 219 222 224 225 224 225 228 234 236 237 236 229 230 232 234 239 247 256 266 270 270 273 272 268 277 283 273 294 306 301 292 286 285 284
196 197 200 201 203 205 207 214 221 222 225 227 229 230 229 227 225 224 233 241 238 238 239 241 247 254 262 260 281 283 267 262 273 274 285 276 299 302 296 291 286 288 284
194 196 200 205 207 207 213 215 216 217 223 227 228 227 227 227 234 237 236 248 246 248 244 255 252 259 254 254 257 261 263 267 275 279 281 281 299 300 296 289 281 276 273
199 200 202 206 208 211 215 220 220 219 223 224 230 235 227 232 231 229 236 238 239 233 236 239 246 258 254 260 263 258 260 265 270 276 281 282 295 299 297 290 280 271 263
203 204 206 207 213 217 219 218 222 225 230 230 231 235 231 233 235 238 238 236 235 234 234 240 254 254 258 266 266 267 264 263 273 279 279 283 295 302 300 292 281 267 256
210 211 211 212 218 222 226 224 225 229 232 234 234 236 243 237 236 236 239 239 237 229 226 237 234 256 257 254 266 266 265 269 273 276 281 283 296 303 300 290 279 269 254
215 212 215 217 220 231 232 235 236 234 239 239 241 240 246 248 243 241 239 238 233 232 238 240 252 265 275 275 282 261 268 266 271 278 282 285 290 303 305 290 277 266 245
213 222 222 218 220 233 235 240 243 246 246 243 243 242 248 248 247 250 246 240 233 236 238 262 279 290 293 278 273 273 276 272 274 276 282 281 285 289 294 292 273 257 253
224 217 224 227 225 228 236 238 243 242 247 245 245 245 244 242 239 246 246 240 241 244 252 256 264 280 289 278 269 278 275 265 271 277 271 278 276 283 267 277 272 267 255
232 232 226 229 233 232 232 241 241 250 252 254 252 246 242 240 233 231 240 244 254 248 262 257 255 252 270 287 266 269 261 270 273 275 270 267 264 262 268 256 272 281 268
231 234 234 234 231 236 237 247 252 258 252 249 253 254 254 252 243 245 249 257 251 248 254 246 266 264 289 281 265 264 272 271 272 260 258 263 258 264 260 263 271 262 276
241 236 241 247 246 250 248 249 246 276 280 265 294 271 266 261 259 245 254 257 256 249 207 188 342 261 236 272 263 259 272 254 260 254 254 256 259 262 268 265 263 265 271
245 248 243 252 258 256 253 251 246 232 255 279 304 297 295 299 291 283 279 262 254 248 220 223 313 230 239 274 258 242 268 254 289 275 256 261 258 263 265 265 263 266 271
341 272 262 254 246 255 259 254 260 245 251 267 289 291 297 314 313 291 281 269 269 263 220 257 278 246 260 256 254 254 252 263 280 286 263 262 258 269 271 267 265 269 271
41 69 39 2 225 229 244 257 256 272 275 267 282 297 312 305 298 289 282 285 261 272 232 266 251 252 249 237 236 246 255 264 272 266 276 275 266 270 274 274 280 274 273
38 38 52 52 100 137 202 222 236 253 271 267 302 291 300 298 287 291 303 275 264 268 239 245 253 243 222 226 233 244 250 256 260 265 271 272 271 273 273 270 276 279 276